Погода в Первомайском

Россия / Тульская область     54°11′31″N   38°36′14″E
темп.,
°C
ветер,
м/с
пор.,
м/с
влажн.,
%
обл.,
%
осадки,
мм/ч
давл.,
гПа
погр.,
м
13 апреля, вт
вт1300:00+10вюв51387100 0.0 1026263
03:00+9юв41283100 0.0 1026198
06:00+8ююв4117875 0.0 1027169
09:00+13ююв5105773 0.0 1026312
12:00+18ююв69405 0.0 1025766
15:00+20ююв69335 0.0 10241626
18:00+18юв5103699 0.0 1023315
21:00+14юв514507 0.0 1023261
14 апреля, ср
ср1400:00+12юв515558 0.0 1023304
03:00+9ююв41166100 0.0 1023194
06:00+8ююв4872100 0.0 1022123
09:00+12ююв5956100 0.0 1021303
12:00+17ююв5738100 0.0 1020725
15:00+18ююв5732100 0.0 10181392
18:00+17юв473769 0.0 1017217
21:00+12юв355295 0.0 101863
15 апреля, чт
чт1500:00+10юв3556100 0.0 101775
03:00+10юв3461100 0.0 101754
06:00+9юв3666100 0.0 1017111
09:00+12юв4656100 0.0 1017284
12:00+14сз115594 0.0 1016581
15:00+17всв434523 0.0 10151201
18:00+16юв235085 0.0 1015243
21:00+12ссз227176 0.1 101521
16 апреля, пт
пт1600:00+11св347562 0.1 101558
03:00+9св358681 0.2 101587
06:00+8св368689 0.1 1016114
09:00+12всв576875 0.1 1016314
12:00+15в5758100 0.1 1016858
15:00+16вюв4755100 1.4 10161278
18:00+15юв2461100 0.8 101696
21:00+12св5884100 3.4 1017146
17 апреля, сб
сб1700:00+10всв599276 2.0 1019348
03:00+9всв5119567 2.8 1019388
06:00+9всв61092100 0.0 1020427
09:00+10всв7118599 0.0 1021507
12:00+15всв8116439 0.0 1021951
15:00+16всв9105711 0.0 10211348
18:00+14всв912617 0.0 1021914
21:00+11всв71465100 0.0 1024628